TimeCST,TemperatureF,Dew PointF,Humidity,Sea Level PressureIn,VisibilityMPH,Wind Direction,Wind SpeedMPH,Gust SpeedMPH,PrecipitationIn,Events,Conditions,WindDirDegrees,DateUTC
12:15 AM,19.2,17.6,93,30.24,4.0,North,15.0,-,N/A,,Overcast,10,2014-03-02 06:15:00
12:35 AM,19.2,17.6,93,30.25,4.0,North,13.8,17.3,N/A,,Overcast,10,2014-03-02 06:35:00
12:55 AM,19.2,17.6,93,30.25,3.0,North,16.1,-,N/A,,Overcast,360,2014-03-02 06:55:00
1:15 AM,19.4,17.8,93,30.26,3.0,North,10.4,-,N/A,,Overcast,360,2014-03-02 07:15:00
1:35 AM,18.5,16.7,93,30.26,4.0,North,16.1,19.6,N/A,,Overcast,360,2014-03-02 07:35:00
1:55 AM,17.6,15.6,92,30.26,5.0,North,12.7,19.6,N/A,,Overcast,10,2014-03-02 07:55:00
2:15 AM,17.6,15.4,91,30.26,5.0,North,15.0,-,N/A,,Overcast,360,2014-03-02 08:15:00
2:35 AM,17.4,15.3,91,30.26,5.0,North,13.8,20.7,N/A,,Overcast,360,2014-03-02 08:35:00
2:55 AM,16.9,14.5,91,30.26,7.0,North,15.0,20.7,N/A,,Overcast,360,2014-03-02 08:55:00
3:15 AM,16.9,14.4,90,30.24,5.0,Calm,Calm,-,N/A,,Overcast,0,2014-03-02 09:15:00
3:35 AM,16.3,13.8,90,30.23,10.0,North,16.1,20.7,N/A,,Overcast,10,2014-03-02 09:35:00
3:55 AM,16.3,13.1,87,30.26,10.0,North,13.8,19.6,N/A,,Overcast,360,2014-03-02 09:55:00
4:15 AM,16.0,13.1,88,30.24,7.0,North,16.1,20.7,N/A,Snow,Light Snow,10,2014-03-02 10:15:00
4:35 AM,15.8,12.6,87,30.26,5.0,North,15.0,-,N/A,Snow,Light Snow,360,2014-03-02 10:35:00
4:55 AM,15.3,12.2,88,30.26,3.0,North,17.3,-,0.01,Snow-Thunderstorm,Light Thunderstorms and Snow,360,2014-03-02 10:55:00
5:15 AM,15.4,12.9,90,30.27,2.5,North,15.0,20.7,0.01,Snow,Light Snow,360,2014-03-02 11:15:00
5:35 AM,14.2,11.3,88,30.27,3.0,North,19.6,26.5,0.02,,Overcast,360,2014-03-02 11:35:00
5:55 AM,13.8,10.8,88,30.27,3.0,North,18.4,24.2,0.02,Snow,Light Snow,10,2014-03-02 11:55:00
6:15 AM,13.8,10.6,87,30.27,7.0,North,15.0,-,N/A,Snow-Thunderstorm,Light Thunderstorms and Snow,360,2014-03-02 12:15:00
6:35 AM,13.6,10.0,86,30.30,10.0,North,17.3,24.2,0.01,,Mostly Cloudy,360,2014-03-02 12:35:00
6:55 AM,13.6,10.2,86,30.31,5.0,North,17.3,-,0.01,Snow,Light Snow,360,2014-03-02 12:55:00
7:15 AM,13.1,9.3,85,30.31,10.0,North,19.6,23.0,N/A,,Overcast,360,2014-03-02 13:15:00
7:35 AM,13.3,9.3,84,30.32,10.0,North,15.0,-,N/A,,Overcast,360,2014-03-02 13:35:00
7:55 AM,13.3,9.5,85,30.34,7.0,North,15.0,18.4,N/A,Snow,Light Snow,10,2014-03-02 13:55:00
8:15 AM,13.5,9.7,85,30.33,7.0,North,13.8,20.7,N/A,Snow,Light Snow,360,2014-03-02 14:15:00
8:35 AM,13.5,9.3,84,30.34,10.0,North,16.1,-,N/A,,Overcast,360,2014-03-02 14:35:00
8:55 AM,13.8,10.0,85,30.36,10.0,North,16.1,-,N/A,,Overcast,360,2014-03-02 14:55:00
9:15 AM,14.0,10.4,86,30.37,7.0,North,15.0,20.7,N/A,Snow,Light Snow,350,2014-03-02 15:15:00
9:35 AM,14.2,10.2,84,30.36,10.0,North,16.1,20.7,N/A,,Overcast,350,2014-03-02 15:35:00
9:55 AM,14.2,10.2,84,30.35,10.0,North,16.1,20.7,N/A,,Overcast,360,2014-03-02 15:55:00
10:15 AM,15.3,11.7,86,30.35,10.0,North,16.1,-,N/A,,Mostly Cloudy,360,2014-03-02 16:15:00
10:35 AM,14.9,11.3,86,30.35,7.0,North,17.3,-,N/A,Snow,Light Snow,350,2014-03-02 16:35:00
10:55 AM,14.5,10.6,84,30.36,7.0,North,16.1,-,N/A,Snow,Light Snow,350,2014-03-02 16:55:00
11:15 AM,13.8,10.0,85,30.36,3.0,NNW,17.3,-,N/A,Snow,Light Snow,340,2014-03-02 17:15:00
11:35 AM,14.0,10.0,84,30.35,5.0,North,17.3,-,N/A,Snow,Light Snow,360,2014-03-02 17:35:00
11:55 AM,13.1,9.0,84,30.35,5.0,North,17.3,-,N/A,Snow,Light Snow,350,2014-03-02 17:55:00
12:15 PM,13.1,9.0,84,30.34,7.0,North,19.6,23.0,N/A,Snow,Light Snow,350,2014-03-02 18:15:00
12:35 PM,12.7,8.1,82,30.33,10.0,North,13.8,-,N/A,Snow,Light Snow,350,2014-03-02 18:35:00
12:55 PM,12.9,8.4,82,30.33,7.0,North,15.0,18.4,N/A,Snow,Light Snow,350,2014-03-02 18:55:00
1:15 PM,12.9,8.4,82,30.32,7.0,North,13.8,19.6,N/A,,Mostly Cloudy,350,2014-03-02 19:15:00
1:35 PM,12.6,7.9,82,30.33,5.0,North,11.5,-,N/A,Snow,Light Snow,350,2014-03-02 19:35:00
1:55 PM,12.2,7.5,82,30.33,3.0,NNW,16.1,20.7,0.01,Snow,Light Snow,340,2014-03-02 19:55:00
2:15 PM,12.2,7.7,82,30.34,3.0,NNW,18.4,-,N/A,Snow,Light Snow,340,2014-03-02 20:15:00
2:35 PM,12.0,7.5,82,30.33,5.0,NNW,18.4,21.9,N/A,,Haze,340,2014-03-02 20:35:00
2:55 PM,11.3,6.3,80,30.34,4.0,North,18.4,-,N/A,Snow,Light Snow,350,2014-03-02 20:55:00
3:15 PM,10.8,6.4,83,30.35,1.8,NNW,18.4,-,N/A,Snow,Light Snow,340,2014-03-02 21:15:00
3:35 PM,10.2,6.1,83,30.34,1.5,North,17.3,-,N/A,Snow,Light Snow,350,2014-03-02 21:35:00
3:55 PM,10.2,6.8,86,30.34,1.2,North,19.6,-,N/A,Snow,Light Snow,350,2014-03-02 21:55:00
4:15 PM,9.1,5.5,85,30.34,1.8,NNW,19.6,-,N/A,Snow,Light Snow,340,2014-03-02 22:15:00
4:35 PM,8.6,5.4,87,30.34,1.0,NNW,20.7,-,N/A,Snow,Light Snow,340,2014-03-02 22:35:00
4:55 PM,8.1,4.5,85,30.34,1.5,North,17.3,-,N/A,Snow,Light Snow,350,2014-03-02 22:55:00
5:15 PM,8.1,4.8,87,30.36,1.0,North,17.3,21.9,N/A,Snow,Light Snow,350,2014-03-02 23:15:00
5:35 PM,7.9,4.1,85,30.38,2.0,NNW,18.4,-,N/A,Snow,Light Snow,340,2014-03-02 23:35:00
5:50 PM,7.9,3.9,84,30.38,2.5,NNW,17.3,-,N/A,Snow,Light Snow,340,2014-03-02 23:50:00
6:15 PM,7.7,3.4,83,30.37,5.0,North,15.0,19.6,N/A,,Haze,350,2014-03-03 00:15:00
6:35 PM,7.9,3.2,81,30.37,7.0,North,13.8,18.4,N/A,Snow,Light Snow,350,2014-03-03 00:35:00
6:55 PM,8.2,3.0,79,30.37,10.0,North,4.6,-,N/A,,Overcast,350,2014-03-03 00:55:00
7:15 PM,8.2,1.2,73,30.37,10.0,North,15.0,-,N/A,,Overcast,360,2014-03-03 01:15:00
7:35 PM,7.7,-0.4,70,30.36,10.0,North,15.0,-,N/A,,Overcast,360,2014-03-03 01:35:00
7:55 PM,7.0,-1.8,67,30.37,10.0,North,18.4,-,N/A,,Mostly Cloudy,350,2014-03-03 01:55:00
8:15 PM,6.6,-2.2,67,30.39,10.0,North,13.8,20.7,N/A,,Scattered Clouds,350,2014-03-03 02:15:00
8:35 PM,6.3,-3.1,65,30.39,10.0,North,17.3,23.0,N/A,,Clear,360,2014-03-03 02:35:00
8:55 PM,5.9,-2.2,69,30.36,10.0,North,19.6,-,N/A,,Clear,360,2014-03-03 02:55:00
9:15 PM,5.7,-2.9,68,30.36,10.0,North,17.3,23.0,N/A,,Clear,360,2014-03-03 03:15:00
9:35 PM,5.5,-2.6,69,30.36,10.0,North,16.1,25.3,N/A,,Clear,360,2014-03-03 03:35:00
9:55 PM,5.5,-2.7,69,30.37,10.0,North,15.0,24.2,N/A,,Clear,360,2014-03-03 03:55:00
10:15 PM,5.5,-2.4,70,30.38,10.0,North,17.3,-,N/A,,Clear,360,2014-03-03 04:15:00
10:30 PM,5.5,-2.7,69,30.38,10.0,North,13.8,-,N/A,,Clear,360,2014-03-03 04:30:00
10:55 PM,5.0,-2.9,70,30.37,10.0,North,15.0,20.7,N/A,,Clear,360,2014-03-03 04:55:00
11:15 PM,5.0,-3.8,67,30.39,10.0,North,15.0,-,N/A,,Clear,360,2014-03-03 05:15:00
11:35 PM,4.8,-3.8,68,30.39,10.0,North,16.1,-,N/A,,Clear,360,2014-03-03 05:35:00
11:55 PM,4.8,-4.0,67,30.38,10.0,North,16.1,20.7,N/A,,Clear,360,2014-03-03 05:55:00